OK1KZE-6 Weather Reports


Display with metric or nautical units.
time (UTC)temp
F
wind
direction
speed
MPH
gust
MPH
rain 1hr
in
rain 24hr
in
rain mn
in
humidity
%
barometer
mb
20260505023507 58 117 11.0 12.0 0.00 0.00 0.00 77 1011.5
20260505023008 59 98 11.0 12.0 0.00 0.00 0.00 72 1011.5
20260505022507 60 98 11.0 12.0 0.00 0.00 0.00 72 1011.6
20260505022007 60 100 12.0 13.0 0.00 0.00 0.00 71 1011.4
20260505021507 60 97 14.0 14.0 0.00 0.00 0.00 71 1011.5
20260505021007 60 89 12.0 13.0 0.00 0.00 0.00 71 1011.3
20260505020508 60 82 12.0 13.0 0.00 0.00 0.00 70 1011.4
20260505020007 60 80 12.0 12.0 0.00 0.00 0.00 71 1011.6
20260505015507 60 78 11.0 12.0 0.00 0.00 0.00 71 1011.4
20260505015008 60 83 11.0 11.0 0.00 0.00 0.00 72 1011.6
20260505014508 59 81 9.0 10.0 0.00 0.00 0.00 72 1011.7
20260505014007 59 86 8.0 9.0 0.00 0.00 0.00 73 1011.6
20260505013507 59 76 8.0 9.0 0.00 0.00 0.00 73 1011.7
20260505013007 60 71 10.0 12.0 0.00 0.00 0.00 73 1011.6
20260505012508 59 85 10.0 12.0 0.00 0.00 0.00 73 1011.6
20260505012006 60 75 8.0 9.0 0.00 0.00 0.00 73 1011.7
20260505011508 60 72 11.0 12.0 0.00 0.00 0.00 73 1012.0
20260505011008 60 75 12.0 13.0 0.00 0.00 0.00 72 1011.9
20260505010508 59 76 9.0 11.0 0.00 0.00 0.00 74 1012.0
20260505010007 60 70 8.0 10.0 0.00 0.00 0.00 72 1011.8
20260505005508 60 68 15.0 15.0 0.00 0.00 0.00 71 1011.9
20260505005009 60 62 14.0 15.0 0.00 0.00 0.00 72 1012.1
20260505004508 59 48 15.0 17.0 0.00 0.00 0.00 74 1012.1
20260505004006 60 75 15.0 17.0 0.00 0.00 0.00 73 1012.2
20260505003508 59 66 21.0 21.0 0.00 0.00 0.00 74 1012.1
20260505003007 59 59 16.0 19.0 0.00 0.00 0.00 75 1012.3
20260505002507 59 79 16.0 22.0 0.00 0.00 0.00 74 1012.1
20260505002007 59 75 17.0 19.0 0.00 0.00 0.00 75 1012.3
20260505001508 58 60 14.0 16.0 0.00 0.00 0.00 79 1012.3
20260505001009 59 77 15.0 16.0 0.00 0.00 0.00 75 1012.1
20260505000508 60 80 19.0 21.0 0.00 0.00 0.00 72 1012.5
20260505000008 60 88 22.0 23.0 0.00 0.00 0.00 71 1012.0
20260504235508 61 88 23.0 27.0 0.00 0.00 0.00 70 1012.1
20260504235007 60 86 23.0 26.0 0.00 0.00 0.00 72 1012.3
20260504234508 59 84 8.0 11.0 0.00 0.00 0.00 79 1012.4
20260504234007 58 64 10.0 12.0 0.00 0.00 0.00 81 1012.8
20260504233508 59 86 19.0 20.0 0.00 0.00 0.00 76 1012.7
20260504233008 61 93 26.0 31.0 0.00 0.00 0.00 70 1012.3
20260504232507 62 97 33.0 34.0 0.00 0.00 0.00 69 1012.2
20260504232007 61 103 30.0 31.0 0.00 0.00 0.00 67 1012.9
20260504231507 62 106 27.0 28.0 0.00 0.00 0.00 68 1013.1
20260504231007 61 111 27.0 30.0 0.00 0.00 0.00 69 1013.2
20260504230506 58 115 25.0 30.0 0.00 0.00 0.00 79 1013.3
20260504230007 59 114 15.0 23.0 0.00 0.00 0.00 74 1013.8
20260504225507 59 123 15.0 23.0 0.00 0.00 0.00 74 1013.9
20260504225007 60 114 19.0 20.0 0.00 0.00 0.00 71 1014.1
20260504224508 60 118 13.0 14.0 0.00 0.00 0.00 69 1014.1
20260504224006 61 134 16.0 17.0 0.00 0.00 0.00 65 1014.3
20260504223506 63 139 15.0 15.0 0.00 0.00 0.00 61 1014.5
20260504223007 63 158 8.0 9.0 0.00 0.00 0.00 60 1014.6
20260504222507 61 182 7.0 8.0 0.00 0.00 0.00 65 1014.8
20260504222007 61 232 8.0 9.0 0.00 0.00 0.00 64 1015.0
20260504221508 62 180 13.0 19.0 0.00 0.00 0.00 62 1015.1
20260504221007 61 199 7.0 11.0 0.00 0.00 0.00 64 1014.9
20260504220508 62 182 14.0 18.0 0.00 0.00 0.00 60 1014.9
20260504220008 61 191 10.0 17.0 0.00 0.00 0.00 62 1014.4
20260504215507 65 116 10.0 11.0 0.00 0.00 0.00 53 1014.1
20260504215008 66 98 20.0 21.0 0.00 0.00 0.00 50 1014.0
20260504214507 66 96 20.0 21.0 0.00 0.00 0.00 51 1013.7
20260504214007 66 91 20.0 21.0 0.00 0.00 0.00 49 1013.9
20260504213508 66 88 19.0 20.0 0.00 0.00 0.00 50 1014.0
20260504213008 66 89 20.0 20.0 0.00 0.00 0.00 50 1013.6
20260504212508 66 84 19.0 21.0 0.00 0.00 0.00 49 1013.9
20260504212007 66 76 16.0 21.0 0.00 0.00 0.00 49 1013.8
20260504211508 66 78 18.0 19.0 0.00 0.00 0.00 49 1013.9
20260504211007 66 76 17.0 18.0 0.00 0.00 0.00 49 1013.9
20260504210508 66 74 15.0 15.0 0.00 0.00 0.00 49 1013.8
20260504210008 66 66 12.0 15.0 0.00 0.00 0.00 50 1014.0
20260504205508 66 80 15.0 17.0 0.00 0.00 0.00 49 1014.0
20260504204508 66 86 15.0 17.0 0.00 0.00 0.00 49 1014.0
20260504204007 66 95 17.0 19.0 0.00 0.00 0.00 48 1013.9
20260504203508 66 95 17.0 18.0 0.00 0.00 0.00 50 1013.9
20260504203008 66 95 18.0 18.0 0.00 0.00 0.00 48 1014.1
20260504202508 66 92 18.0 19.0 0.00 0.00 0.00 48 1014.1
20260504202007 67 94 18.0 19.0 0.00 0.00 0.00 48 1014.0
20260504201508 67 94 19.0 21.0 0.00 0.00 0.00 48 1014.0
20260504201007 67 96 19.0 20.0 0.00 0.00 0.00 48 1014.0
20260504200508 67 96 19.0 19.0 0.00 0.00 0.00 49 1014.2
20260504200008 67 97 18.0 19.0 0.00 0.00 0.00 49 1014.1
20260504195508 67 98 19.0 20.0 0.00 0.00 0.00 48 1014.1
20260504195009 67 97 20.0 21.0 0.00 0.00 0.00 49 1014.2
20260504194508 67 100 19.0 20.0 0.00 0.00 0.00 49 1014.2
20260504194007 67 99 20.0 20.0 0.00 0.00 0.00 49 1014.2
20260504193508 67 99 21.0 21.0 0.00 0.00 0.00 50 1014.1
20260504193007 67 98 20.0 21.0 0.00 0.00 0.00 49 1014.1
20260504192507 67 99 21.0 21.0 0.00 0.00 0.00 49 1014.2
20260504192007 67 95 20.0 21.0 0.00 0.00 0.00 49 1014.2
20260504191508 67 95 20.0 21.0 0.00 0.00 0.00 49 1014.1
20260504191007 67 98 21.0 22.0 0.00 0.00 0.00 49 1014.1
20260504190507 67 97 21.0 21.0 0.00 0.00 0.00 49 1014.0
20260504190008 68 95 22.0 23.0 0.00 0.00 0.00 48 1014.0
20260504185507 68 92 21.0 21.0 0.00 0.00 0.00 47 1014.1
20260504185008 68 92 22.0 22.0 0.00 0.00 0.00 47 1014.1
20260504184507 68 94 21.0 22.0 0.00 0.00 0.00 47 1013.9
20260504184007 68 91 20.0 21.0 0.00 0.00 0.00 47 1013.9
20260504183508 68 89 20.0 21.0 0.00 0.00 0.00 47 1013.8
20260504183007 68 89 20.0 22.0 0.00 0.00 0.00 46 1013.9
20260504182507 69 87 20.0 22.0 0.00 0.00 0.00 46 1013.9
20260504182007 68 91 21.0 22.0 0.00 0.00 0.00 46 1013.8
20260504181009 68 87 19.0 19.0 0.00 0.00 0.00 48 1014.1
20260504180506 68 88 17.0 19.0 0.00 0.00 0.00 48 1013.9
20260504180008 68 89 21.0 21.0 0.00 0.00 0.00 47 1013.9
20260504175507 69 93 19.0 21.0 0.00 0.00 0.00 47 1014.0
20260504175008 69 87 19.0 20.0 0.00 0.00 0.00 46 1014.1
20260504174507 69 83 19.0 19.0 0.00 0.00 0.00 46 1014.1
20260504174008 69 84 17.0 18.0 0.00 0.00 0.00 46 1014.0
20260504173509 69 88 18.0 19.0 0.00 0.00 0.00 45 1014.2
20260504173008 69 87 18.0 19.0 0.00 0.00 0.00 45 1014.2
20260504172508 69 87 19.0 21.0 0.00 0.00 0.00 45 1014.0
20260504172008 69 87 20.0 21.0 0.00 0.00 0.00 45 1014.2
20260504171508 69 91 16.0 20.0 0.00 0.00 0.00 46 1014.3
20260504171007 69 83 21.0 22.0 0.00 0.00 0.00 45 1014.2
20260504170508 70 82 20.0 21.0 0.00 0.00 0.00 46 1014.3
20260504151007 71 84 14.0 16.0 0.00 0.00 0.00 42 1015.1
20260504150507 72 89 17.0 19.0 0.00 0.00 0.00 42 1014.9
20260504141007 72 101 12.0 15.0 0.00 0.00 0.00 42 1015.3
20260504140508 72 84 9.0 11.0 0.00 0.00 0.00 40 1015.6
20260504130508 70 93 16.0 17.0 0.00 0.00 0.00 42 1015.6
20260504110508 67 66 12.0 12.0 0.00 0.00 0.00 46 1016.8
20260504100509 66 63 14.0 14.0 0.00 0.00 0.00 47 1017.1
20260504082007 62 48 14.0 15.0 0.00 0.00 0.00 54 1016.7
20260504081507 62 46 10.0 12.0 0.00 0.00 0.00 54 1016.6
20260504081008 61 54 14.0 15.0 0.00 0.00 0.00 56 1016.6
20260504080508 61 33 8.0 9.0 0.00 0.00 0.00 56 1016.8
20260504050508 54 113 17.0 18.0 0.00 0.00 0.00 65 1015.3
20260504050008 53 117 18.0 19.0 0.00 0.00 0.00 66 1015.2
20260504045507 53 111 16.0 18.0 0.00 0.00 0.00 66 1015.1
20260504045008 53 107 15.0 17.0 0.00 0.00 0.00 67 1015.3
20260504044508 53 113 13.0 14.0 0.00 0.00 0.00 67 1015.1
20260504044008 53 116 13.0 14.0 0.00 0.00 0.00 66 1015.1
20260504043508 54 101 16.0 18.0 0.00 0.00 0.00 66 1015.0
20260504043008 54 104 6.0 8.0 0.00 0.00 0.00 64 1015.1
20260504042507 54 77 7.0 8.0 0.00 0.00 0.00 64 1014.8
20260504042007 54 74 6.0 7.0 0.00 0.00 0.00 64 1015.0
20260504041508 55 86 12.0 13.0 0.00 0.00 0.00 61 1015.0
20260504041008 55 105 12.0 14.0 0.00 0.00 0.00 60 1015.2
20260504040507 56 91 10.0 11.0 0.00 0.00 0.00 60 1015.2
20260504040009 56 110 10.0 11.0 0.00 0.00 0.00 58 1015.3
20260504035507 59 135 14.0 14.0 0.00 0.00 0.00 54 1015.2
20260504035008 58 130 15.0 15.0 0.00 0.00 0.00 55 1015.1
20260504034507 56 138 17.0 18.0 0.00 0.00 0.00 58 1015.1
20260504034007 57 131 12.0 17.0 0.00 0.00 0.00 57 1015.3
20260504033508 57 150 19.0 21.0 0.00 0.00 0.00 57 1015.2
20260504033007 56 136 21.0 21.0 0.00 0.00 0.00 58 1015.0
20260504032507 57 132 21.0 21.0 0.00 0.00 0.00 56 1014.9
20260504032007 57 131 20.0 21.0 0.00 0.00 0.00 56 1014.9
20260504031507 57 130 20.0 21.0 0.00 0.00 0.00 56 1014.8
20260504031008 59 134 15.0 16.0 0.00 0.00 0.00 53 1014.8
20260504030508 60 129 13.0 14.0 0.00 0.00 0.00 52 1015.0
20260504030008 60 126 13.0 14.0 0.00 0.00 0.00 51 1015.2
20260504025508 60 125 12.0 14.0 0.00 0.00 0.00 51 1015.3
20260504025008 59 105 11.0 12.0 0.00 0.00 0.00 53 1015.0
20260504024507 59 106 12.0 13.0 0.00 0.00 0.00 52 1015.3
20260504024007 58 100 10.0 12.0 0.00 0.00 0.00 53 1015.0